Flag for El Salvador Weather past 2 weeks in San Salvador, El Salvador

Now
79 °F

Passing clouds.


Feels Like: 82 °F
Forecast: 70 / 89 °F
Wind: 5 mph from Northeast

Location: El Salvador Intl. Airport / Comalapa

Current Time: May 26, 2015 at 4:22:02 AM

Latest Report: May 26, 2015 at 3:50 AM


Visibility: N/A

Pressure: 29.83 "Hg

Humidity: 84%

Dew point: 73 °F

Location of San SalvadorLocation

Historic Weather in San Salvador — Graph

°F

San Salvador temperature yesterday

Maximum temperature yesterday: 91 °F (at 10:50 AM)
Minimum temperature yesterday: 75 °F (at 3:50 AM)
Average temperature yesterday: 84 °F

Past Weeks' High & Low Weather Summary

 TemperatureHumidityPressure
High99 °F (May 22, 11:50 AM)100% (May 17, 11:50 AM)29.95 "Hg (May 17, 11:50 AM)
Low72 °F (May 17, 11:50 AM)39% (May 12, 11:50 AM)29.71 "Hg (May 13, 2:50 PM)
Average84 °F70%29.85 "Hg
* Reported May 11 2:50 AM — May 26 1:50 AM, San Salvador, Weather by CustomWeather, © 2015

Note: Actual official high and low records may vary slightly from our data, if they occured in-between our weather recording intervals... More about our weather records

Advertising

San Salvador weather history for previous 24 hours

 ConditionsComfort  
Time TempWeatherWind HumidityBarometerVisibility
1:50 AM
Tue, May 26
79 °FPassing clouds.2 mph84%29.86 "HgN/A
11:50 PM
Mon, May 25
79 °FClear.1 mph84%29.89 "Hg10 mi
10:50 PM79 °FClear.1 mph84%29.89 "Hg10 mi
9:50 PM81 °FClear.1 mph84%29.89 "Hg10 mi
8:50 PM81 °FClear.7 mph84%29.89 "Hg10 mi
7:50 PM82 °FClear.2 mph79%29.86 "Hg10 mi
6:50 PM81 °FClear.2 mph79%29.83 "Hg10 mi
5:50 PM86 °FSunny.6 mph62%29.77 "Hg10 mi
4:50 PM90 °FPassing clouds.6 mph55%29.77 "HgN/A
3:50 PM90 °FPassing clouds.8 mph59%29.77 "HgN/A
2:50 PM91 °FPassing clouds.5 mph56%29.77 "HgN/A
1:50 PM90 °FPassing clouds.9 mph59%29.80 "HgN/A
12:50 PM91 °FPassing clouds.8 mph56%29.83 "HgN/A
11:50 AM90 °FPassing clouds.7 mph59%29.86 "HgN/A
10:50 AM91 °FPassing clouds.3 mph52%29.86 "HgN/A
9:50 AM90 °FSunny.3 mph55%29.86 "Hg10 mi
8:50 AM88 °FPassing clouds.3 mph66%29.89 "HgN/A
7:50 AM86 °FPassing clouds.6 mph66%29.89 "HgN/A
6:50 AM81 °FSunny.2 mph79%29.86 "Hg10 mi
5:50 AM77 °FPassing clouds.5 mph83%29.86 "HgN/A
4:50 AM75 °FClear.6 mph94%29.83 "Hg10 mi
Weather by CustomWeather, © 2015

See weather overviewHow to use our weather pages